Location: *
(46.1866°S, 178.5290°W)
Time: 17:21:01
(UTC+00:00)

Cosmos 1553 Rocket - Pass Details

Date: 19 May 2021
Orbit: 942 x 1007 km, 82.9° (Epoch: 17 June)

Event Time Altitude Azimuth Distance (km) Brightness Sun altitude
Rises 05:17:31 0° 185° (S) 3,658 6.9 -8.7°
Reaches altitude 10° 05:20:09 10° 179° (S) 2,702 6.1 -9.1°
Maximum altitude 05:26:06 49° 105° (ESE) 1,223 4.1 -10.1°
Drops below altitude 10° 05:31:59 10° 30° (NNE) 2,671 6.2 -11.1°
Sets 05:34:33 0° 24° (NNE) 3,612 6.9 -11.5°
